Skip Page Navigation
NASA JPL Caltech
NASA Logo - Jet Propulsion Laboratory + View the NASA Portal
+ Near-Earth Object (NEO) Program
Search JPL
JPL Home Earth Solar System Stars & Galaxies Technology
JPL Solar System Dynamics
BODIES ORBITS EPHEMERIDES TOOLS PHYSICAL DATA DISCOVERY FAQ SITE MAP
JPL Small-Body Database Browser
Search: [ help ]  
52533 (1996 TJ10)
Classification: Inner Main-belt Asteroid          SPK-ID: 2052533
Ephemeris | Orbit Diagram | Orbital Elements | Physical Parameters | Discovery Circumstances | Close-Approach Data ]

[ show orbit diagram ]
Orbital Elements at Epoch 2456800.5 (2014-May-23.0) TDB
Reference: JPL 8 (heliocentric ecliptic J2000)
 Element Value Uncertainty (1-sigma)   Units 
e .08047600155939229 9.2831e-08  
a 1.957237570459659 1.7109e-08 AU
q 1.799726916687247 1.7947e-07 AU
i 19.01437095787877 1.0272e-05 deg
node 12.23715495621602 2.4367e-05 deg
peri 307.9717095020318 6.9136e-05 deg
M 209.1375998178882 7.3414e-05 deg
tp 2457219.623734038952
(2015-Jul-16.12373404)
0.00020633 JED
period 1000.14678324012
2.74
1.3114e-05
3.59e-08
d
yr
n .3599471657887335 4.7195e-09 deg/d
Q 2.114748224232073 1.8485e-08 AU
  Orbit Determination Parameters
   # obs. used (total)      612  
   data-arc span      6407 days (17.54 yr)  
   first obs. used      1996-09-18  
   last obs. used      2014-04-04  
   planetary ephem.      DE431  
   SB-pert. ephem.      SB431-BIG16  
   condition code      0  
   fit RMS      .52791  
   data source      ORB  
   producer      Otto Matic  
   solution date      2014-Apr-17 14:56:34  

Additional Information
 Earth MOID = .827906 AU 
 T_jup = 3.814 
[ show covariance matrix ]

Ephemeris | Orbit Diagram | Orbital Elements | Physical Parameters | Discovery Circumstances | Close-Approach Data ]

Physical Parameter Table
Parameter Symbol Value Units Sigma Reference Notes
absolute magnitude H 14.5 mag n/a MPO240603  

52533 (1996 TJ10)          Discovered 1996-Oct-09 by Ueda, S., Kaneda, H. at Kushiro (399)
Reference: 20030216/Numbers.arcLast Updated: 2004-04-19

[ show close-approach data ]
Alternate Designations
 1996 TJ10 = 1998 FA144 
Ephemeris | Orbit Diagram | Orbital Elements | Physical Parameters | Discovery Circumstances | Close-Approach Data ]
ABOUT SSD CREDITS/AWARDS PRIVACY/COPYRIGHT GLOSSARY LINKS
FirstGov 2014-Apr-24 03:19 UT
(server date/time)  
NASA Home Page
Site Manager:   Donald K. Yeomans
Webmaster  Alan B. Chamberlin